sat.trackr.live / text

‹ back to catalog

ORBCOMM FM113

NORAD 41185 · 2015-081G

PAYLOAD ACTIVE UNKNOWN

§ Identity

Operator
Country
ORB
Launch date
2015-12-22
Launch site
AFETR
Launch vehicle
Mass (kg)
RCS (m²)
0.47

Purposes: comms

External: N2YO · Heavens-Above · Gunter

§ Orbital elements

Epoch: 2026-05-25T00:56:14.618112Z

Period
98.71 min
Inclination
47.0022°
Eccentricity
0.0001021
Mean motion
14.58827954 rev/d
Perigee alt
696.2 km
Apogee alt
697.7 km
Semi-major
7,075.1 km
B*
1.0421e-4
RAAN
20.0696°
Arg perigee
101.4158°
Mean anomaly
258.6843°
Rev number
55,555

§ Raw data

ORBCOMM FM1131 41185U 15081G   26145.03905808  .00000321  00000+0  10421-3 0  99912 41185  47.0022  20.0696 0001021 101.4158 258.6843 14.58827954555557

JSON: /api/v1/satellites/41185 · /tle

For live sub-satellite position, see the globe view (requires WebGL).

§ Visibility from observer

Set your observer location to see the next 7 days of passes ≥ 10°. The values pass through the URL so the page stays shareable.

No JS? Fill the form by hand. The geolocation button needs JavaScript.

§ Radio — SatNOGS DB

ModeDescriptionDownlinkUplink
FM Telemetry 137.663 MHz
FM Telemetry 137.800 MHz

2 transmitters · refreshed weekly from db.satnogs.org